1
0
mirror of https://github.com/wolfpld/tracy.git synced 2025-03-20 07:40:02 +08:00

Commit Graph

  • 08d403e324 libbacktrace: support zstd decompression (c992dd8) Bartosz Taudul 2023-01-05 20:27:36 +01:00
  • 096293110b Update ImGui to 1.89.2 + docking. Bartosz Taudul 2023-01-05 19:15:58 +01:00
  • 04a428ab29 Merge pull request #506 from spnda/master Bartosz Taudul 2023-01-03 14:17:19 +01:00
  • d76e3a364a Cosmetics. Bartosz Taudul 2023-01-03 13:56:56 +01:00
  • b597ab5a0a Fix: Don't let make_unique initialise data unnecessarily sean 2023-01-03 13:07:52 +01:00
  • 5a3d7b6f56 Update NEWS. Bartosz Taudul 2023-01-01 16:20:35 +01:00
  • 6c699d293e Annotate assembly dumps with source line information. Bartosz Taudul 2023-01-01 16:19:37 +01:00
  • bb8393c918 Calculate max operand length. Bartosz Taudul 2023-01-01 14:47:10 +01:00
  • 1945b1bfa0 Change assembly comment character from ; to #. Bartosz Taudul 2023-01-01 14:42:50 +01:00
  • 28eb4a934e Update manual. Bartosz Taudul 2022-12-30 20:38:29 +01:00
  • b8029f7448 Show diff direction and allow reversal. Bartosz Taudul 2022-12-30 20:33:17 +01:00
  • 166c553af3 Make diff added/deleted files list collapsed by default. Bartosz Taudul 2022-12-30 20:20:52 +01:00
  • 314b1b48c8 Condense source diff. Bartosz Taudul 2022-12-23 19:56:39 +01:00
  • b81d564f66 Add DTL to list of libraries. Bartosz Taudul 2022-12-23 19:40:37 +01:00
  • 0922dfc7b0 Update NEWS. Bartosz Taudul 2022-12-23 19:35:34 +01:00
  • 2aee91a142 Update manual. Bartosz Taudul 2022-12-23 19:34:17 +01:00
  • 1eaebb44cb Display changes in source files in compare menu. Bartosz Taudul 2022-12-23 19:14:31 +01:00
  • 205930fd2c Add file and diff printers. Bartosz Taudul 2022-12-23 19:14:18 +01:00
  • 5a442f123e Calculate diff between source files. Bartosz Taudul 2022-12-23 18:48:05 +01:00
  • 4bb0a1f1ed Add line splitter. Bartosz Taudul 2022-12-23 18:47:26 +01:00
  • cbc85003f7 Add Diff Template Library 1.20. Bartosz Taudul 2022-12-23 18:47:10 +01:00
  • bd06d4e104 Build lists of unique source files in comparison menu. Bartosz Taudul 2022-12-23 17:11:47 +01:00
  • 886456ea44 Load source cache in comparison worker. Bartosz Taudul 2022-12-23 17:10:21 +01:00
  • 359840bec0 Add source diff radio button to compare menu. Bartosz Taudul 2022-12-23 16:54:07 +01:00
  • c12505c19d Fix TRACY_NO_CALLSTACK on Windows. Bartosz Taudul 2022-12-22 21:17:31 +01:00
  • 6e70b7c20b Push keyboard modifiers to ImGui. Bartosz Taudul 2022-12-22 17:48:14 +01:00
  • 797d5df850 Push key events to ImGui. Bartosz Taudul 2022-12-22 17:39:30 +01:00
  • dff2a6d6c2 Implement XKB text compositing. Bartosz Taudul 2022-12-20 22:19:45 +01:00
  • b7affdd92d Create XKB compose table/state. Bartosz Taudul 2022-12-20 21:55:31 +01:00
  • 0831b3f301 Push focus events to ImGui. Bartosz Taudul 2022-12-20 17:11:15 +01:00
  • 170a961d8d Tweak mouse wheel behavior on Wayland. Bartosz Taudul 2022-12-20 16:54:28 +01:00
  • b48a9027dd Add more packages on CI. Bartosz Taudul 2022-12-20 00:53:56 +01:00
  • 115f286acf Update CI libraries list. Bartosz Taudul 2022-12-20 00:49:22 +01:00
  • cd4156afe7 Update NEWS. Bartosz Taudul 2022-12-20 00:46:22 +01:00
  • 58f84379d0 Setup Wayland build. Bartosz Taudul 2022-12-20 00:35:43 +01:00
  • aa0e899573 Initialize XKB state. Bartosz Taudul 2022-12-20 00:22:27 +01:00
  • 7106b0c5ef Hook no-op keyboard handling. Bartosz Taudul 2022-12-19 23:46:08 +01:00
  • 3b58f5596d Detect precise (touchpad) scroll events. Bartosz Taudul 2022-12-19 21:26:59 +01:00
  • ac87b05dcb Fix scroll events direction on Wayland. Bartosz Taudul 2022-12-19 21:11:53 +01:00
  • 7f00ae8c83 Fix mouse buttons order on Wayland. Bartosz Taudul 2022-12-19 21:10:55 +01:00
  • 16d9491148 Merge pull request #503 from tvoeroes/timeline-animation-tweaks Bartosz Taudul 2022-12-19 21:03:18 +01:00
  • 1969ef0f43 Reintroduce the vertical scroll-bar reset logic in TimelineController. Tomaž Vöröš 2022-12-18 23:40:03 +01:00
  • b4e8e042a8 Fix a code style issue. Tomaž Vöröš 2022-12-18 23:30:47 +01:00
  • e4ab6cdaf1 Fix TimelineController height calculation. Tomaž Vöröš 2022-12-18 20:45:05 +01:00
  • d6772900ad Get rid of a non-linearity in TimelineItem resizing animation. Tomaž Vöröš 2022-12-18 20:09:15 +01:00
  • 0cc6bb4ff9 More pleasant TimelineItem resizing parameters. Tomaž Vöröš 2022-12-18 20:06:57 +01:00
  • db6acfe9b5 Change resize logic such that TimelineItem instances "don't chase" each other anymore. Tomaž Vöröš 2022-12-18 20:06:10 +01:00
  • b80ede3ec6 Limit time delta to 0.1s. Bartosz Taudul 2022-12-11 18:01:32 +01:00
  • 9e6214350c Support Hi-DPI mouse cursor. Bartosz Taudul 2022-12-11 17:50:05 +01:00
  • 1f4562e51d Support Hi-DPI. Bartosz Taudul 2022-12-11 17:43:41 +01:00
  • 63ba9cccf2 Track max output scale. Bartosz Taudul 2022-12-11 17:29:17 +01:00
  • 3d42732795 Track window maximized state. Bartosz Taudul 2022-12-11 15:52:18 +01:00
  • d5191ccbd4 Enable alt-space menu on windows. Bartosz Taudul 2022-12-09 19:04:45 +01:00
  • ee3d5a94a7 Fix apfel check. Bartosz Taudul 2022-12-09 18:59:01 +01:00
  • 462d8103aa Mark activity on window XDG surface reconfiguration. Bartosz Taudul 2022-12-04 21:11:56 +01:00
  • 12a109d303 Use XDG decoration protocol. Bartosz Taudul 2022-12-04 20:44:05 +01:00
  • 9d7cdf2a29 Add xdg-decoration protocol. Bartosz Taudul 2022-11-20 01:54:51 +01:00
  • 4e0ad1cab8 Update NEWS. Bartosz Taudul 2022-11-30 20:39:55 +01:00
  • ba6416f68c Merge pull request #497 from pshurgal/detailed_function_names Bartosz Taudul 2022-11-30 12:14:46 +01:00
  • 5ddf62b54e Customizable source location data Petr Shurgalin 2022-11-25 15:05:16 +02:00
  • a27ecd7135 Merge pull request #499 from ReplayCoding/other_thread_name Bartosz Taudul 2022-11-29 22:24:56 +01:00
  • 9da24b713c Always fallback to using native thread name... ReplayCoding 2022-11-28 12:35:07 -08:00
  • a2825c8601 Update ZEN4 CPU name. Bartosz Taudul 2022-11-29 17:06:10 +01:00
  • dba85c61b7 Update NEWS. Bartosz Taudul 2022-11-29 17:04:47 +01:00
  • d24f768b1f Update to official uops.info ZEN4 data. Bartosz Taudul 2022-11-29 17:03:29 +01:00
  • 70e22ad045 Merge pull request #498 from ReplayCoding/crashhandler_fix Bartosz Taudul 2022-11-27 22:48:49 +01:00
  • 311ad7b061 Fix compile error when TRACY_NO_CRASH_HANDLER is enabled ReplayCoding 2022-11-16 14:14:37 -08:00
  • 7e5ee54f93 On POSIX check if UID is 0. Bartosz Taudul 2022-11-27 22:35:19 +01:00
  • 6933856157 Update NEWS. Bartosz Taudul 2022-11-27 22:26:13 +01:00
  • 97c38077cc Explain it makes no sense to run server with admin rights. Bartosz Taudul 2022-11-27 22:24:42 +01:00
  • 59f7870345 Track elevation state. Bartosz Taudul 2022-11-27 21:53:35 +01:00
  • 7e23d873dc Check elevation status on Windows. Bartosz Taudul 2022-11-27 21:48:20 +01:00
  • e1395f5a53 Rename surfaceListener to include xdg part. Bartosz Taudul 2022-11-09 23:17:53 +01:00
  • d26ae1fbb5 Manage list of outputs. Bartosz Taudul 2022-11-09 01:06:00 +01:00
  • 8b9246e312 Add global remove callback. Bartosz Taudul 2022-11-09 00:26:41 +01:00
  • 89a55a2220 Remove semicolons from lockable macros. Bartosz Taudul 2022-11-09 22:07:36 +01:00
  • 2c03306341 Always provide Callstack() implementation, even if dummy. Bartosz Taudul 2022-11-09 21:55:41 +01:00
  • c0035a492f Update ImGui to 4d5da74. Bartosz Taudul 2022-11-08 23:47:59 +01:00
  • 53d54092b0 Implement attention requests. Bartosz Taudul 2022-11-08 01:36:45 +01:00
  • a7ba5dd9df Change xdg-shell to private-code. Bartosz Taudul 2022-11-08 01:02:33 +01:00
  • 8dafadb267 Add xdg-activation protocol. Bartosz Taudul 2022-11-08 01:01:46 +01:00
  • 1173cbc639 Move wayland protocol to a subdirectory. Bartosz Taudul 2022-11-08 00:59:42 +01:00
  • e6f74c04d6 Wayland cursor handling is fucking stupid. Bartosz Taudul 2022-11-08 00:31:57 +01:00
  • e227cfe100 Process pointer events. Bartosz Taudul 2022-11-07 21:46:17 +01:00
  • 4f7fba1fed Hook seat. Bartosz Taudul 2022-11-07 01:20:48 +01:00
  • 9645998a97 Set app id. Bartosz Taudul 2022-11-06 01:33:15 +01:00
  • 1ccc0c39ea Delay toplevel creation until after OpenGL initialization. Bartosz Taudul 2022-11-06 01:14:56 +01:00
  • 4d74968515 Wait for xdg_surface to be configured. Bartosz Taudul 2022-11-06 01:01:07 +01:00
  • a2f774dc20 Downgrade wl_compositor protocol to version 4. Bartosz Taudul 2022-11-06 00:43:09 +01:00
  • ce797d82d5 Add minimal wayland backend. Bartosz Taudul 2022-11-05 22:41:54 +01:00
  • a9be9d65de Add xdg-shell protocol. Bartosz Taudul 2022-11-05 22:41:26 +01:00
  • 6c74320b3e Merge pull request #488 from xxxbxxx/master Bartosz Taudul 2022-11-03 19:28:04 +01:00
  • cadef728d3 Update tracy.tex xxxbxxx 2022-11-03 19:26:53 +01:00
  • e7ac54fba6 Signals are only set if TRACY_NO_CRASH_HANDLER is not defined. Bartosz Taudul 2022-11-03 17:21:09 +01:00
  • a0cb8eb1d5 Added typed plots variants to the C API xxxbxxx 2022-11-03 13:47:04 +01:00
  • 4abb3b5e90 Pressing cancel is not an error. Bartosz Taudul 2022-10-30 00:44:30 +02:00
  • a6a265b548 Display notification if there's a problem with file selector. Bartosz Taudul 2022-10-30 00:42:45 +02:00
  • 11cafbff1d Expose internal file selector failure state. Bartosz Taudul 2022-10-30 00:36:07 +02:00
  • fbfd7e5186 Report if file selector can be displayed. Bartosz Taudul 2022-10-30 00:31:15 +02:00
  • 343e7b6866 Update NEWS. Bartosz Taudul 2022-10-28 01:30:57 +02:00